This demonstration page uses our WeatherBlox Daily Observations layout. Learn more.

39.01783, -85.05884

Hourly Observations for January 21, 2019

Temp ( °F °C ) Dew Point ( °F °C ) Humidity (%) Winds ( mph kmh ) Pressure ( in mb ) Visibility ( mi km ) Precip ( " mm )
12:52 am 00:52 Clear 6 -14.4 -1 -18.3 73 73 Calm 30.42 1030 10 16.09344 0 0
1:52 am 01:52 Clear 4 -15.6 -1 -18.3 80 80 W 3 6 30.42 1030 10 16.09344 0 0
2:52 am 02:52 Clear 1 -17.2 -2 -18.9 87 87 Calm 30.42 1030 10 16.09344 0 0
3:52 am 03:52 Clear 2 -16.7 -2 -18.9 83 83 Calm 30.45 1031 10 16.09344 0 0
4:52 am 04:52 Clear 3 -16.1 -1 -18.3 83 83 NNW 3 6 30.45 1031 10 16.09344 0 0
5:52 am 05:52 Clear 3 -16.1 -1 -18.3 83 83 NNW 6 9 30.48 1032 10 16.09344 0 0
6:52 am 06:52 Clear with Mist and Fog 4 -15.6 1 -17.2 88 88 N 5 7 30.48 1032 6 9.656064 0 0
7:52 am 07:52 Mostly Clear 4 -15.6 0 -17.8 83 83 NNE 7 11 30.53 1034 9 14.484096 0 0
8:52 am 08:52 Mostly Sunny 5 -15 -2 -18.9 72 72 NNE 6 9 30.56 1035 10 16.09344 0 0
9:52 am 09:52 Mostly Sunny 7 -13.9 -2 -18.9 66 66 NE 5 7 30.62 1037 10 16.09344 0 0
10:52 am 10:52 Partly Cloudy 9 -12.8 -1 -18.3 64 64 ENE 7 11 30.59 1036 10 16.09344 0 0
11:52 am 11:52 Partly Cloudy 12 -11.1 -1 -18.3 56 56 NE 3 6 30.62 1037 10 16.09344 0 0
12:52 pm 12:52 Mostly Sunny 13 -10.6 -2 -18.9 51 51 ESE 3 6 30.59 1036 10 16.09344 0 0
1:52 pm 13:52 Mostly Sunny 15 -9.4 -2 -18.9 46 46 E 3 6 30.56 1035 10 16.09344 0 0
2:52 pm 14:52 Mostly Sunny 16 -8.9 0 -17.8 49 49 E 5 7 30.56 1035 10 16.09344 0 0
3:52 pm 15:52 Partly Cloudy 17 -8.3 1 -17.2 49 49 E 6 9 30.56 1035 10 16.09344 0 0
4:52 pm 16:52 Partly Cloudy 16 -8.9 0 -17.8 49 49 E 8 13 30.53 1034 10 16.09344 0 0
5:52 pm 17:52 Mostly Cloudy 16 -8.9 0 -17.8 49 49 E 7 11 30.53 1034 10 16.09344 0 0
6:52 pm 18:52 Mostly Cloudy 15 -9.4 0 -17.8 51 51 E 10 17 30.53 1034 10 16.09344 0 0
7:52 pm 19:52 Cloudy 13 -10.6 0 -17.8 56 56 E 10 17 30.53 1034 10 16.09344 0 0
8:52 pm 20:52 Cloudy 13 -10.6 0 -17.8 56 56 E 9 15 30.53 1034 10 16.09344 0 0
9:52 pm 21:52 Cloudy 14 -10 0 -17.8 53 53 E 10 17 30.5 1033 10 16.09344 0 0
10:52 pm 22:52 Cloudy 13 -10.6 1 -17.2 59 59 E 9 15 30.5 1033 9 14.484096 0 0
11:52 pm 23:52 Cloudy 14 -10 2 -16.7 58 58 E 15 24 30.48 1032 10 16.09344 0 0

Powered by AerisWeather